[[{"header":{"parameterUnit":"m.s-1","parameterCategory":1,"la1":30.2991,"la2":30.254,"lo1":-89.0895,"lo2":-89.0444,"dy":0.0017,"dx":0.0017,"nx":28,"ny":28,"refTime":"2024-07-19T21:00:00:Z","depth":0,"parameterNumber":2,"parameterNumberName":"U-component_of_WINDS"},"data":[0,0,0,0,0,0,0,0,0,0,0,0,0,0,0,0,0,0,0,0,0,0,0,0,0,0,0,0,0,0,0,0,0,0,0,0,0,0,0,0,0,0,0,0,0,0,0,0,0,0,0,0,0,0,0,0,0,0,0.1544,0.1545,0,0.1571,0.1571,0.1571,0.158,0.1579,0.1579,0.1579,0.1604,0.1604,0.1605,0,0,0,0,0,0,0,0,0,0,0,0,0,0.1499,0.1499,0.1544,0.1545,0.1545,0.157,0.1571,0.1571,0.158,0.1579,0.1579,0.1579,0.1603,0.1604,0.1605,0,0,0,0,0,0,0,0,0,0,0,0,0,0.1521,0.15,0.1544,0.1552,0.1553,0.157,0.1571,0.1571,0.158,0.1579,0.1579,0.1579,0.1603,0.1604,0.1605,0.1615,0,0,0.1609,0.1609,0,0,0,0,0,0,0,0,0.152,0.1523,0.1551,0.1552,0.1553,0.1572,0.1564,0.1586,0.158,0.157,0.1579,0.1579,0.1593,0.1595,0.16,0.1617,0.1618,0.1609,0.1609,0.161,0.161,0,0,0,0,0,0,0,0.1518,0.1521,0.1555,0.1551,0.1552,0.1554,0.1557,0.1568,0.1582,0.157,0.1571,0.1574,0.1593,0.1599,0.1601,0.1618,0.1609,0.161,0.161,0.1611,0.1644,0.1644,0,0,0,0,0,0,0.1516,0.152,0.1554,0.1555,0.1536,0.1555,0.1558,0.1566,0.1582,0.1584,0.1574,0.1575,0.1597,0.1599,0.1602,0.1615,0.161,0.1611,0.1612,0.1644,0.1644,0.1644,0,0,0,0,0,0,0.1515,0.1518,0.1553,0.1538,0.1542,0.1556,0.1564,0.1566,0.1572,0.1585,0.1587,0.1578,0.1597,0.16,0.1612,0.1616,0.1611,0.1612,0.1644,0.1644,0.1644,0.1641,0,0,0,0,0,0,0.1513,0.1518,0.1523,0.1538,0.1543,0.1564,0.1564,0.1567,0.1574,0.1575,0.1588,0.159,0.1597,0.161,0.1613,0.1617,0.1613,0.1643,0.1644,0.1644,0.1641,0.1641,0.1641,0,0,0,0,0,0.1512,0.152,0.1523,0.1527,0.1549,0.1564,0.1567,0.1575,0.1574,0.1579,0.1587,0.159,0.1615,0.1612,0.1615,0.1619,0.1643,0.1644,0.1644,0.1641,0.1641,0.1641,0,0,0,0,0,0,0.1504,0.1522,0.1526,0.1539,0.155,0.1565,0.1571,0.1575,0.1585,0.1585,0.1594,0.1597,0.1609,0.1615,0.1611,0.163,0.1629,0.163,0.1625,0.1626,0.1626,0.1624,0.1614,0,0,0,0,0,0.1504,0.1515,0.153,0.1541,0.1546,0.1558,0.1564,0.157,0.1581,0.1585,0.1594,0.1604,0.1614,0.162,0.163,0.1642,0.1645,0.1646,0.1647,0.1647,0.1648,0.1654,0.1655,0.1646,0.1646,0.1646,0,0,0.1503,0.1515,0.1521,0.1539,0.1548,0.1559,0.1561,0.1572,0.158,0.1586,0.1599,0.1605,0.1617,0.1629,0.1635,0.1635,0.1651,0.1647,0.1647,0.1648,0.1655,0.1656,0.1656,0.1646,0.1646,0.1646,0,0,0.1509,0.1519,0.1529,0.1538,0.1552,0.156,0.1562,0.1577,0.1582,0.1595,0.16,0.1608,0.1626,0.1634,0.164,0.1648,0.1652,0.1651,0.1653,0.1659,0.166,0.1661,0.1664,0.1665,0.1652,0.1652,0.1652,0,0.1506,0.1523,0.1533,0.1544,0.1552,0.1559,0.1569,0.1577,0.1593,0.1598,0.1598,0.162,0.1628,0.1642,0.1644,0.1649,0.1652,0.165,0.1659,0.166,0.1661,0.1664,0.1665,0.1652,0.1652,0.1652,0.1652,0,0.152,0.1531,0.1538,0.1554,0.1563,0.1573,0.1584,0.1591,0.1596,0.1603,0.1616,0.1626,0.1638,0.1642,0.1646,0.1657,0.1656,0.1658,0.1657,0.1661,0.1664,0.1665,0.1652,0.1652,0.1652,0.1652,0,0,0.152,0.1543,0.1545,0.1553,0.1569,0.1577,0.1588,0.1601,0.1606,0.1617,0.1626,0.164,0.1642,0.1649,0.1654,0.166,0.1666,0.1661,0.1661,0.1661,0.1678,0.1677,0.1678,0.1668,0.1669,0.1669,0.1677,0,0.1528,0.1548,0.1557,0.1573,0.1583,0.1591,0.16,0.161,0.1617,0.1627,0.1634,0.1645,0.1646,0.165,0.1656,0.1664,0.1669,0.1664,0.1676,0.1676,0.1673,0.1679,0.1678,0.1685,0.1678,0.1678,0.1678,0,0.1539,0.1551,0.1568,0.1583,0.1588,0.1596,0.1608,0.1617,0.1629,0.1634,0.1642,0.1648,0.1658,0.1657,0.1671,0.1667,0.1672,0.1677,0.1678,0.1679,0.1677,0.1681,0.1688,0.1689,0.168,0.168,0.168,0,0.1537,0.1558,0.1571,0.1577,0.1595,0.16,0.1608,0.1619,0.1627,0.1637,0.1642,0.1653,0.166,0.1668,0.1676,0.1674,0.1689,0.1689,0.1693,0.1693,0.1696,0.1696,0.1704,0.17,0.17,0.17,0.17,0,0.1544,0.1554,0.157,0.1578,0.159,0.16,0.161,0.1618,0.1629,0.1638,0.1644,0.1652,0.1663,0.1672,0.1678,0.1689,0.1691,0.1695,0.1697,0.1695,0.1694,0.1698,0.1698,0.17,0.17,0.17,0.17,0,0.1545,0.1556,0.157,0.1587,0.1591,0.1598,0.1612,0.1619,0.1627,0.1638,0.1641,0.1653,0.1664,0.1674,0.1688,0.1692,0.1703,0.1705,0.17,0.17,0.1704,0.1704,0.1715,0.1717,0.1712,0.1712,0.1712,0,0.1549,0.1557,0.1574,0.1581,0.1589,0.16,0.1608,0.1618,0.1626,0.164,0.1645,0.1657,0.1667,0.1685,0.1694,0.1705,0.1707,0.171,0.1708,0.1706,0.1707,0.1706,0.1707,0.171,0.171,0.171,0.171,0,0.1554,0.1559,0.1571,0.1584,0.1594,0.1604,0.1615,0.162,0.1632,0.164,0.1653,0.166,0.1676,0.1687,0.1699,0.1706,0.171,0.1711,0.1712,0.171,0.1707,0.1709,0.17,0.171,0.171,0.171,0.171,0.171,0.1556,0.1564,0.1578,0.159,0.16,0.161,0.1618,0.1627,0.1638,0.1651,0.1656,0.1669,0.168,0.1697,0.1704,0.1713,0.1713,0.1715,0.1716,0.1716,0.1716,0.1706,0.1715,0.1715,0.1715,0.1715,0.1715,0,0.1562,0.1571,0.1583,0.1599,0.1608,0.1612,0.1625,0.1632,0.1643,0.1654,0.1664,0.1678,0.1689,0.17,0.1711,0.1716,0.1719,0.1719,0.1719,0.172,0.1715,0.1713,0.1717,0.1717,0.1717,0.1717,0.1717,0.1717,0.1566,0.1579,0.1586,0.1604,0.1613,0.1626,0.1633,0.1642,0.1651,0.1666,0.1676,0.1683,0.1693,0.1706,0.1716,0.1719,0.1723,0.1723,0.1726,0.1721,0.1721,0.172,0.1718,0.1724,0.1724,0.173,0.173,0.173]},{"header":{"parameterUnit":"m.s-1","parameterCategory":1,"la1":30.2991,"la2":30.254,"lo1":-89.0895,"lo2":-89.0444,"dy":0.0017,"dx":0.0017,"nx":28,"ny":28,"refTime":"2024-07-19T21:00:00:Z","depth":0,"parameterNumber":3,"parameterNumberName":"V-component_of_WINDS"},"data":[0,0,0,0,0,0,0,0,0,0,0,0,0,0,0,0,0,0,0,0,0,0,0,0,0,0,0,0,0,0,0,0,0,0,0,0,0,0,0,0,0,0,0,0,0,0,0,0,0,0,0,0,0,0,0,0,0,0,4.3095,4.3095,0,4.3177,4.3178,4.3179,4.3191,4.3191,4.319,4.3189,4.3273,4.3276,4.3279,0,0,0,0,0,0,0,0,0,0,0,0,0,4.2947,4.295,4.3094,4.3096,4.3097,4.3177,4.3178,4.3179,4.3191,4.3191,4.319,4.3189,4.3272,4.3276,4.3279,0,0,0,0,0,0,0,0,0,0,0,0,0,4.3019,4.2951,4.3094,4.3112,4.3115,4.3177,4.3178,4.318,4.3192,4.3191,4.3189,4.3188,4.3271,4.3275,4.328,4.3329,0,0,4.3293,4.3295,0,0,0,0,0,0,0,0,4.3015,4.3024,4.3109,4.3111,4.3114,4.3173,4.3157,4.323,4.3192,4.3162,4.3189,4.3188,4.3241,4.3247,4.3265,4.3333,4.3337,4.3293,4.3296,4.3298,4.3299,0,0,0,0,0,0,0,4.301,4.3021,4.3127,4.311,4.3113,4.3116,4.3125,4.3171,4.3207,4.3165,4.3166,4.3176,4.3242,4.3261,4.3267,4.3338,4.3293,4.3297,4.33,4.3302,4.3452,4.3454,0,0,0,0,0,0,4.3002,4.3016,4.3125,4.313,4.3061,4.312,4.313,4.3155,4.3206,4.3213,4.3177,4.3176,4.3254,4.3262,4.327,4.3333,4.3298,4.3302,4.3305,4.3451,4.3453,4.3454,0,0,0,0,0,0,4.2998,4.3011,4.3121,4.3073,4.3088,4.3124,4.3152,4.3157,4.3177,4.3215,4.3222,4.319,4.3254,4.3264,4.3315,4.3336,4.3304,4.3308,4.3449,4.3452,4.3453,4.3457,0,0,0,0,0,0,4.2994,4.301,4.3029,4.3074,4.309,4.3164,4.3153,4.316,4.3184,4.3184,4.3229,4.3235,4.3253,4.3308,4.3319,4.3341,4.3311,4.3448,4.345,4.3453,4.3455,4.3459,4.3462,0,0,0,0,0,4.2989,4.3026,4.303,4.3043,4.3115,4.3165,4.3175,4.3195,4.3186,4.3205,4.3231,4.3234,4.3332,4.3313,4.3326,4.3349,4.3446,4.345,4.3453,4.3454,4.3458,4.3462,0,0,0,0,0,0,4.2982,4.3032,4.3037,4.309,4.3123,4.3167,4.3192,4.3199,4.3235,4.3234,4.3257,4.3267,4.3317,4.3338,4.3317,4.3401,4.3388,4.3394,4.3385,4.339,4.3393,4.3387,4.3315,0,0,0,0,0,4.2987,4.3024,4.3066,4.3108,4.3125,4.3156,4.3179,4.3192,4.3227,4.3241,4.327,4.3304,4.3343,4.3368,4.3405,4.3459,4.3469,4.3481,4.3485,4.3488,4.3492,4.3523,4.3529,4.3464,4.3464,4.3464,0,0,4.2997,4.3029,4.3051,4.3108,4.3135,4.3173,4.3168,4.3208,4.3236,4.3247,4.3297,4.3319,4.3359,4.3412,4.3437,4.3431,4.3513,4.3492,4.3493,4.3497,4.3527,4.3533,4.3539,4.3466,4.3466,4.3466,0,0,4.3034,4.3062,4.3101,4.3129,4.3171,4.3192,4.3201,4.3245,4.326,4.3311,4.3321,4.3355,4.3421,4.3449,4.3472,4.3523,4.3527,4.3534,4.3552,4.3582,4.3587,4.3592,4.361,4.3617,4.3539,4.3539,4.3539,0,4.3041,4.3099,4.3121,4.3161,4.3186,4.3199,4.3239,4.3265,4.3317,4.3334,4.3328,4.3412,4.3439,4.3499,4.3512,4.353,4.3542,4.3529,4.3585,4.359,4.3594,4.3612,4.3619,4.3539,4.3539,4.3539,4.3539,0,4.3106,4.3146,4.3172,4.3223,4.3251,4.3291,4.3319,4.3346,4.3357,4.3378,4.343,4.3464,4.3509,4.3525,4.3535,4.3587,4.3582,4.358,4.3568,4.3601,4.3618,4.3625,4.354,4.354,4.354,4.3539,0,0,4.314,4.3203,4.3213,4.3236,4.3285,4.3316,4.3357,4.3402,4.3424,4.346,4.3495,4.3551,4.355,4.3577,4.3591,4.3617,4.3656,4.3612,4.3613,4.3619,4.3716,4.3717,4.3724,4.366,4.3661,4.3662,4.3712,0,4.3183,4.3257,4.3278,4.334,4.3378,4.3391,4.3427,4.3461,4.3482,4.3518,4.3542,4.3581,4.3576,4.3593,4.3619,4.3645,4.3676,4.3642,4.3693,4.3695,4.3682,4.3733,4.3734,4.378,4.3719,4.372,4.3721,0,4.3243,4.3281,4.3347,4.3391,4.3408,4.344,4.3483,4.3517,4.3556,4.357,4.36,4.3612,4.3656,4.3642,4.3703,4.368,4.3703,4.3719,4.3721,4.3726,4.371,4.374,4.3795,4.3801,4.3732,4.3731,4.373,0,4.3262,4.3329,4.3378,4.3398,4.3451,4.3473,4.3496,4.3534,4.356,4.3598,4.3615,4.3658,4.3681,4.3714,4.3738,4.3726,4.3798,4.3786,4.3811,4.381,4.3825,4.3824,4.3884,4.384,4.384,4.3839,4.3839,0,4.3308,4.3348,4.3387,4.3417,4.3462,4.3487,4.3531,4.3555,4.3589,4.3624,4.3638,4.3671,4.3701,4.3737,4.3756,4.3805,4.3815,4.3828,4.3832,4.3827,4.3825,4.3841,4.3839,4.3841,4.3841,4.3841,4.384,0,4.3336,4.3364,4.3418,4.3464,4.3477,4.3508,4.3548,4.3578,4.3601,4.3645,4.3656,4.3692,4.3736,4.3764,4.382,4.3833,4.3886,4.3889,4.3873,4.3875,4.3899,4.3896,4.3972,4.3983,4.3931,4.3931,4.3932,0,4.3363,4.3395,4.3445,4.3469,4.3493,4.3532,4.3559,4.3585,4.3613,4.3661,4.3685,4.373,4.3767,4.3837,4.3869,4.3912,4.3916,4.394,4.3923,4.3916,4.3917,4.3915,4.3918,4.3942,4.3943,4.3943,4.3944,0,4.3409,4.3422,4.346,4.3504,4.3536,4.3571,4.3607,4.3626,4.3659,4.3689,4.3735,4.3764,4.3822,4.3867,4.3913,4.3937,4.3946,4.3949,4.3957,4.3951,4.394,4.3947,4.388,4.3947,4.3946,4.3946,4.3946,4.3946,4.3438,4.3467,4.3507,4.3549,4.3579,4.3612,4.3643,4.367,4.3708,4.3757,4.3771,4.3819,4.3858,4.3922,4.3947,4.3985,4.3982,4.3994,4.3997,4.3999,4.4,4.3935,4.3994,4.3994,4.3994,4.3994,4.3994,0,4.3485,4.3511,4.355,4.36,4.3634,4.364,4.368,4.3708,4.375,4.3786,4.3823,4.3876,4.392,4.3956,4.4001,4.4025,4.4031,4.4036,4.4035,4.404,4.4,4.3988,4.4031,4.4031,4.4031,4.4031,4.4031,4.4031,4.3513,4.3562,4.3579,4.3644,4.3671,4.3718,4.374,4.3771,4.38,4.3859,4.3896,4.3919,4.3955,4.4004,4.4045,4.4054,4.407,4.4076,4.4086,4.4047,4.4043,4.4039,4.4028,4.4079,4.4079,4.4123,4.4123,4.4124]}]]